Zurück zum Katalog

FENGYUN 1C DEB

AktivSSO
NORAD 30379·DEBRIS·🇨🇳 China

Gestartet May 10, 1999 von Taiyuan Satellite Launch Center

Loading…

Nächste Überflüge (nächste 24 Stunden)

TLE

AktuellSource: Space-Track

Epoche: Sep 14, 2026, 06:48 UTC

1 30379U 99025ACS 26257.28360250  .00000205  00000-0  14435-3 0  9992
2 30379  98.7499 268.7766 0035526 220.1090 204.5788 14.08282350  6886

Verfolge FENGYUN 1C DEB in Echtzeit mit AllMySat

Download on the App Store